EW5678 Weather Reports


Display with metric or nautical units.
time (UTC)temp
F
wind
direction
speed
MPH
gust
MPH
rain 1hr
in
rain 24hr
in
rain mn
in
humidity
%
barometer
mb
20260505001448 55 211 10.0 20.0 0.00 0.00 0.00 77 999.8
20260504235648 55 213 9.0 18.0 0.00 0.00 0.00 76 999.5
20260504234748 56 215 10.0 22.0 0.00 0.00 0.00 75 999.5
20260504233848 56 207 11.0 25.0 0.00 0.00 0.00 73 999.4
20260504232948 57 209 11.0 24.0 0.00 0.00 0.00 72 999.3
20260504232048 57 209 12.0 29.0 0.00 0.00 0.00 70 999.2
20260504231148 57 207 12.0 24.0 0.00 0.00 0.00 70 999.0
20260504230248 58 210 13.0 28.0 0.00 0.00 0.00 69 998.9
20260504225348 58 205 12.0 25.0 0.00 0.00 0.00 68 999.0
20260504224448 58 203 13.0 24.0 0.00 0.00 0.00 67 999.0
20260504223548 58 208 13.0 28.0 0.00 0.00 0.00 65 999.2
20260504222648 59 212 14.0 32.0 0.00 0.00 0.00 65 999.2
20260504221747 59 220 15.0 30.0 0.00 0.00 0.00 64 999.0
20260504220848 59 211 13.0 27.0 0.00 0.00 0.00 64 999.2
20260504215947 60 216 11.0 25.0 0.00 0.00 0.00 63 999.3
20260504215048 60 210 13.0 27.0 0.00 0.00 0.00 63 999.4
20260504214147 60 214 13.0 25.0 0.00 0.00 0.00 62 999.5
20260504213247 60 209 12.0 25.0 0.00 0.00 0.00 60 999.4
20260504212347 61 214 12.0 27.0 0.00 0.00 0.00 59 999.4
20260504211447 61 214 12.0 25.0 0.00 0.00 0.00 60 999.5
20260504210547 61 202 10.0 22.0 0.00 0.00 0.00 59 999.3
20260504205647 61 205 11.0 22.0 0.00 0.00 0.00 59 999.6
20260504204747 61 213 11.0 21.0 0.00 0.00 0.00 60 999.5
20260504203847 62 216 13.0 27.0 0.00 0.00 0.00 58 999.4
20260504202947 62 214 14.0 27.0 0.00 0.00 0.00 57 999.4
20260504202047 62 197 11.0 25.0 0.00 0.00 0.00 55 999.4
20260504201147 62 213 12.0 26.0 0.00 0.00 0.00 55 999.5
20260504200247 63 216 12.0 24.0 0.00 0.00 0.00 55 999.6
20260504195347 62 216 16.0 28.0 0.00 0.00 0.00 54 999.4
20260504194447 63 198 12.0 24.0 0.00 0.00 0.00 53 999.6
20260504192647 63 217 11.0 24.0 0.00 0.00 0.00 52 999.7
20260504191747 63 214 11.0 23.0 0.00 0.00 0.00 52 999.8
20260504190847 63 204 11.0 23.0 0.00 0.00 0.00 53 999.8
20260504185047 64 198 10.0 20.0 0.00 0.00 0.00 51 1000.0
20260504184147 64 220 11.0 21.0 0.00 0.00 0.00 52 1000.1
20260504183247 64 209 10.0 20.0 0.00 0.00 0.00 51 1000.2
20260504182347 63 214 12.0 26.0 0.00 0.00 0.00 52 1000.4
20260504180547 63 215 10.0 22.0 0.00 0.00 0.00 52 1000.5
20260504175647 63 219 10.0 22.0 0.00 0.00 0.00 52 1000.7
20260504174746 63 208 10.0 20.0 0.00 0.00 0.00 52 1000.7
20260504173847 62 219 13.0 23.0 0.00 0.00 0.00 51 1000.7
20260504172946 62 223 15.0 25.0 0.00 0.00 0.00 49 1000.7
20260504172046 62 212 15.0 26.0 0.00 0.00 0.00 47 1000.8
20260504171146 63 214 12.0 28.0 0.00 0.00 0.00 46 1000.8
20260504170246 62 227 15.0 30.0 0.00 0.00 0.00 47 1000.8
20260504150546 62 241 12.0 22.0 0.00 0.00 0.00 42 1002.2
20260504141146 60 226 9.0 20.0 0.00 0.00 0.00 45 1002.5
20260504140246 60 228 11.0 19.0 0.00 0.00 0.00 47 1002.5
20260504110245 51 240 14.0 24.0 0.00 0.00 0.00 58 1003.1
20260504080244 51 256 10.0 19.0 0.00 0.00 0.00 52 1002.1
20260504050244 52 243 13.0 19.0 0.00 0.00 0.00 53 1001.5
20260504045344 52 250 12.0 18.0 0.00 0.00 0.00 51 1001.4
20260504044444 53 246 13.0 18.0 0.00 0.00 0.00 48 1001.4
20260504043543 53 251 10.0 18.0 0.00 0.00 0.00 46 1001.5
20260504042643 53 265 9.0 16.0 0.00 0.00 0.00 44 1001.4
20260504041743 53 253 10.0 16.0 0.00 0.00 0.00 44 1001.4
20260504040843 53 248 9.0 17.0 0.00 0.00 0.00 43 1001.5
20260504035943 54 242 9.0 17.0 0.00 0.00 0.00 42 1001.4
20260504035044 55 273 9.0 13.0 0.00 0.00 0.00 37 1001.4
20260504033243 55 291 8.0 13.0 0.00 0.00 0.00 38 1001.3
20260504032343 55 286 9.0 14.0 0.00 0.00 0.00 39 1001.3
20260504031443 54 290 8.0 13.0 0.00 0.00 0.00 39 1001.4
20260504030543 54 266 7.0 13.0 0.00 0.00 0.00 38 1001.4
20260504025643 55 287 8.0 13.0 0.00 0.00 0.00 38 1001.3
20260504023843 56 281 15.0 19.0 0.00 0.00 0.00 36 1001.3
20260504022943 56 284 15.0 18.0 0.00 0.00 0.00 35 1001.3
20260504022043 56 280 13.0 16.0 0.00 0.00 0.00 35 1001.3
20260504021143 56 281 13.0 15.0 0.00 0.00 0.00 36 1001.3
20260504020243 56 279 13.0 15.0 0.00 0.00 0.00 36 1001.3
20260504015343 55 279 13.0 15.0 0.00 0.00 0.00 36 1001.3
20260504014443 55 278 10.0 14.0 0.00 0.00 0.00 37 1001.3
20260504013543 55 277 10.0 13.0 0.00 0.00 0.00 37 1001.2
20260504012643 55 279 11.0 13.0 0.00 0.00 0.00 37 1001.0
20260504011743 55 268 7.0 12.0 0.00 0.00 0.00 38 1001.0
20260504010843 55 276 9.0 13.0 0.00 0.00 0.00 37 1001.0
20260504005943 55 275 10.0 13.0 0.00 0.00 0.00 37 1000.8
20260504005042 55 276 9.0 12.0 0.00 0.00 0.00 36 1000.7
20260504004143 55 279 11.0 13.0 0.00 0.00 0.00 36 1000.6
20260504003242 55 278 11.0 13.0 0.00 0.00 0.00 36 1000.5
20260504002343 55 279 12.0 15.0 0.00 0.00 0.00 36 1000.3